Regional Weather Roundup
Issued by NWS

Home | Current Version | Previous Version | Text Only | Print | Product List | Glossary On
Versions: 1 2 3 4 5 6 7 8 9 10 11 12 13 14 15 16 17 18 19 20 21 22 23 24 25 26 27 28 29 30 31 32 33 34 35 36 37 38 39 40 41 42 43 44 45 46 47 48 49 50
000
ASUS43 KLSX 042107
RWRMO

WEATHER SUMMARY FOR MISSOURI
NATIONAL WEATHER SERVICE SPRINGFIELD MO
400 PM CDT SAT JUL 04 2015

NOTE: "FAIR" INDICATES FEW OR NO CLOUDS BELOW 12,000 FEET WITH NO
       SIGNIFICANT WEATHER AND/OR OBSTRUCTIONS TO VISIBILITY.
       CURRENT SKY AND/OR WEATHER CONDITIONS ARE NOT AVAILABLE FOR
       CHILLICOTHE AND FARMINGTON.

MOZ001>031-035>038-043-044-053-054-042200-
...NORTHERN AND WESTERN MISSOURI...

CITY           SKY/WX    TMP DP  RH WIND       PRES   REMARKS
KANSAS CTY INT PTSUNNY   80  61  52 S8        29.98F
KANSAS C DTWN  MOSUNNY   82  58  43 VRB5      29.97F
LEE`S SUMMIT   SUNNY     81  62  52 E6        30.00S
ST JOSEPH      MOSUNNY   82  63  52 S8        29.98F
CHILLICOTHE      N/A     83  60  45 VRB6      29.99F
KIRKSVILLE     SUNNY     81  57  43 CALM      30.00F

$$
MOZ066>068-077>081-088>096-101>105-042200-
...SOUTHWEST MISSOURI...

CITY           SKY/WX    TMP DP  RH WIND       PRES   REMARKS
SPRINGFIELD    PTSUNNY   86  66  51 N5        29.98F
JOPLIN         MOSUNNY   86  66  51 SE6       29.97F

$$
MOZ032>034-039>042-045>050-055>058-069>072-042200-
...CENTRAL MISSOURI...

CITY           SKY/WX    TMP DP  RH WIND       PRES   REMARKS
COLUMBIA       MOSUNNY   82  64  54 E5        29.99F
JEFFERSON CITY SUNNY     83  61  47 NE3       29.98S
ROLLA          MOSUNNY   80  63  55 CALM      29.99S
SEDALIA        SUNNY     83  64  52 S3        30.00F
WHITEMAN AFB   SUNNY     82  64  53 VRB5      29.97F
WARRENSBURG    MOSUNNY   81  63  54 SE3       29.98F
OSAGE BEACH    MOSUNNY   82  61  47 S3        29.99S

$$
MOZ051-052-059>065-042200-
...EAST CENTRAL MISSOURI...

CITY           SKY/WX    TMP DP  RH WIND       PRES   REMARKS
ST LOUIS INTL  MOSUNNY   82  60  47 NE3       29.99F
SPIRIT OF STL  PTSUNNY   82  62  50 CALM      29.97F
ST CHARLES     SUNNY     82  61  48 NE3       29.98F

$$
MOZ072>076-082>087-097>100-106>115-042200-
...SOUTH CENTRAL AND SOUTHEAST MISSOURI...

CITY           SKY/WX    TMP DP  RH WIND       PRES   REMARKS
CAPE GIRARDEAU MOSUNNY  N/A N/A N/A E6        29.95F
FARMINGTON     MOSUNNY   81  63  54 CALM      30.03F
POPLAR BLUFF   CLOUDY    81  69  67 NE5       29.95F
WEST PLAINS    MOSUNNY   81  66  60 SE6       30.00F

$$



USA.gov is the U.S. government's official web portal to all federal, state and local government web resources and services.